Home > Weather > Lugano > Past weeks

Flag for Switzerland Past Weather in Lugano, Switzerland — Yesterday and Last 2 Weeks

Now
84 °F

Passing clouds.


Feels Like: 87 °F
Forecast: 66 / 87 °F
Wind: 8 mph from South

Location: Lugano Airport

Current Time: Jul 29, 2016 at 4:12:06 PM

Latest Report: Jul 29, 2016 at 3:20 PM


Visibility: N/A

Pressure: 29.98 "Hg

Humidity: 55%

Dew Point: 66 °F

Location of LuganoLocation

Past Weather in Lugano — Graph

°F

Lugano Temperature Yesterday

Maximum temperature yesterday: 84 °F (at 3:20 PM)
Minimum temperature yesterday: 63 °F (at 5:50 AM)
Average temperature yesterday: 73 °F

High & Low Weather Summary for the Past Weeks

 TemperatureHumidityPressure
High90 °F (Jul 19, 5:50 PM)100% (Jul 19, 5:20 AM)30.18 "Hg (Jul 19, 5:20 AM)
Low55 °F (Jul 17, 4:50 AM)20% (Jul 16, 3:50 PM)29.89 "Hg (Jul 14, 3:20 PM)
Average73 °F69%30.05 "Hg
* Reported Jul 14 3:20 PM — Jul 29 3:20 PM, Lugano, Weather by CustomWeather, © 2016

Note: Actual official high and low records may vary slightly from our data, if they occured in-between our weather recording intervals... More about our weather records

Advertising

Lugano Weather History for the Previous 24 Hours

Scroll right to see more
 ConditionsComfort  
Time TempWeatherWind HumidityBarometerVisibility
3:20 PM
Fri, Jul 29
84 °FPassing clouds.8 mph55%29.98 "HgN/A
2:20 PM84 °FPassing clouds.7 mph55%29.98 "HgN/A
1:50 PM84 °FPassing clouds.6 mph55%29.98 "HgN/A
1:20 PM82 °FPassing clouds.5 mph51%30.01 "HgN/A
12:50 PM81 °FPassing clouds.6 mph62%30.01 "HgN/A
12:20 PM81 °FPassing clouds.3 mph58%30.01 "HgN/A
11:50 AM79 °FPassing clouds.6 mph61%30.01 "HgN/A
11:20 AM79 °FWarm.5 mph61%30.01 "HgN/A
10:50 AM77 °FPassing clouds.2 mph65%30.01 "HgN/A
10:20 AM75 °FPassing clouds.2 mph65%30.04 "HgN/A
9:50 AM75 °FPassing clouds.1 mph69%30.04 "HgN/A
9:20 AM72 °FScattered clouds.2 mph78%30.04 "HgN/A
8:50 AM72 °FScattered clouds.1 mph69%30.04 "HgN/A
8:20 AM68 °FScattered clouds.3 mph83%30.04 "HgN/A
7:50 AM66 °FScattered clouds.5 mph88%30.04 "HgN/A
7:20 AM64 °FPassing clouds.5 mph94%30.01 "HgN/A
6:50 AM64 °FClear.1 mph94%30.01 "Hg10 mi
6:20 AM64 °FClear.2 mph94%30.01 "Hg10 mi
5:50 AM63 °FClear.No wind100%30.01 "Hg10 mi
5:20 AM64 °FMild.2 mph94%30.01 "HgN/A
4:50 AM64 °FPassing clouds.3 mph94%30.01 "HgN/A
4:20 AM64 °FClear.1 mph94%30.01 "Hg10 mi
3:50 AM64 °FMild.1 mph94%30.01 "HgN/A
3:20 AM66 °FPassing clouds.2 mph88%30.01 "HgN/A
2:50 AM66 °FPassing clouds.3 mph88%30.01 "HgN/A
2:20 AM66 °FPassing clouds.3 mph88%30.01 "HgN/A
1:50 AM66 °FMild.2 mph88%30.01 "HgN/A
1:20 AM68 °FPassing clouds.2 mph83%30.01 "HgN/A
12:50 AM66 °FPassing clouds.3 mph88%30.01 "HgN/A
12:20 AM68 °FPassing clouds.1 mph83%30.01 "HgN/A
11:50 PM
Thu, Jul 28
68 °FClear.1 mph83%30.01 "Hg10 mi
11:20 PM68 °FClear.3 mph88%30.01 "Hg10 mi
10:50 PM70 °FClear.2 mph83%30.01 "Hg10 mi
10:20 PM72 °FClear.2 mph78%29.98 "Hg10 mi
9:50 PM72 °FSunny.2 mph73%29.98 "Hg10 mi
9:20 PM73 °FMild.2 mph69%29.98 "HgN/A
8:50 PM72 °FSunny.5 mph83%29.95 "Hg10 mi
8:20 PM75 °FSunny.5 mph69%29.95 "Hg10 mi
7:50 PM79 °FSunny.3 mph65%29.95 "Hg10 mi
7:20 PM81 °FPassing clouds.3 mph58%29.95 "HgN/A
6:50 PM82 °FScattered clouds.3 mph55%29.95 "HgN/A
6:20 PM84 °FScattered clouds.5 mph48%29.95 "HgN/A
5:50 PM82 °FScattered clouds.7 mph51%29.95 "HgN/A
5:20 PM82 °FPassing clouds.8 mph55%29.95 "HgN/A
4:50 PM84 °FPassing clouds.8 mph51%29.95 "HgN/A
4:20 PM84 °FPassing clouds.7 mph51%29.95 "HgN/A
Weather by CustomWeather, © 2016

See weather overviewHow to use our weather pages